CARBONITE 1 (CBNT-1)

Last updated on Sun Jan 18 2026 00:02:29 GMT+0000 (Coordinated Universal Time)

1 40718U 15032D 26017.61544885 .00001858 00000+0 23469-3 0 9996 2 40718 97.6410 202.0860 0015933 70.1430 290.1500 14.82932330567025
UTC large
Height (km)
Speed (km/s)
/
Latitude / Longitude
Inclination (degrees)
Orbital Period (minutes)
Azimuth
Elevation
Range (km)
Doppler Factor

Next 0 passes for location: London (51.5072 / 0.1276)

Sorry there are no passes over London.